CW1032 Weather Reports


Display with metric or nautical units.
time (UTC)temp
F
wind
direction
speed
MPH
gust
MPH
rain 1hr
in
rain 24hr
in
rain mn
in
humidity
%
barometer
mb
20260507085552 51 0 0.0 0.0 0.00 0.48 0.30 93 1011.0
20260507085051 51 0 0.0 0.0 0.00 0.48 0.30 93 1010.9
20260507084555 51 0 0.0 0.0 0.00 0.48 0.30 93 1011.0
20260507084049 51 0 0.0 0.0 0.00 0.48 0.30 93 1010.9
20260507083549 51 0 0.0 0.0 0.00 0.48 0.30 93 1010.9
20260507083056 51 0 0.0 0.0 0.00 0.48 0.30 92 1010.8
20260507082549 51 0 0.0 0.0 0.00 0.48 0.30 93 1010.6
20260507082052 51 0 0.0 0.0 0.00 0.48 0.30 92 1010.6
20260507081551 51 0 0.0 0.0 0.01 0.48 0.30 92 1010.4
20260507081050 51 0 0.0 2.0 0.06 0.48 0.30 92 1010.4
20260507080550 51 0 0.0 2.0 0.08 0.48 0.30 92 1010.6
20260507080059 51 0 0.0 2.0 0.08 0.48 0.30 92 1010.5
20260507075549 51 0 0.0 0.0 0.08 0.48 0.30 92 1010.6
20260507075050 51 0 0.0 2.0 0.08 0.48 0.30 92 1010.4
20260507074600 51 0 0.0 2.0 0.08 0.48 0.30 92 1010.3
20260507074050 51 0 0.0 1.0 0.08 0.48 0.30 91 1010.2
20260507073549 51 333 0.0 1.0 0.09 0.48 0.30 91 1010.4
20260507073100 51 0 0.0 1.0 0.09 0.48 0.30 91 1010.7
20260507072550 51 0 0.0 5.0 0.09 0.48 0.30 91 1010.6
20260507072050 51 0 0.0 5.0 0.09 0.48 0.30 90 1010.7
20260507071557 52 338 1.0 5.0 0.08 0.47 0.29 90 1010.8
20260507071050 52 343 0.0 4.0 0.02 0.41 0.23 90 1011.0
20260507070551 52 0 1.0 4.0 0.01 0.40 0.22 90 1010.8
20260507070103 53 320 1.0 4.0 0.01 0.40 0.22 91 1010.7
20260507065550 53 343 1.0 4.0 0.01 0.40 0.22 91 1010.8
20260507065049 53 336 0.0 3.0 0.01 0.40 0.22 91 1010.9
20260507064552 53 0 1.0 3.0 0.01 0.40 0.22 91 1010.7
20260507064050 53 0 0.0 3.0 0.01 0.40 0.22 91 1010.7
20260507063550 53 0 0.0 3.0 0.00 0.39 0.21 91 1010.8
20260507063055 53 0 0.0 2.0 0.00 0.39 0.21 91 1010.8
20260507062549 53 0 0.0 1.0 0.00 0.39 0.21 91 1010.7
20260507062049 53 0 0.0 1.0 0.00 0.39 0.21 91 1010.8
20260507061554 53 0 0.0 1.0 0.00 0.39 0.21 91 1010.8
20260507061049 53 0 0.0 1.0 0.01 0.39 0.21 91 1010.8
20260507060552 53 0 0.0 2.0 0.01 0.39 0.21 90 1010.9
20260507060105 53 0 0.0 2.0 0.03 0.39 0.21 90 1010.8
20260507055553 53 331 0.0 1.0 0.03 0.39 0.21 90 1010.9
20260507055050 53 0 0.0 0.0 0.03 0.39 0.21 90 1011.0
20260507054557 53 0 0.0 1.0 0.04 0.39 0.21 90 1010.9
20260507054051 53 0 0.0 2.0 0.07 0.39 0.21 90 1010.6
20260507053550 54 359 0.0 3.0 0.13 0.39 0.21 90 1010.5
20260507053055 54 313 0.0 5.0 0.18 0.39 0.21 90 1010.8
20260507052549 54 335 2.0 5.0 0.20 0.39 0.21 90 1010.7
20260507052050 54 316 1.0 3.0 0.20 0.39 0.21 90 1010.9
20260507051557 55 299 0.0 3.0 0.21 0.39 0.21 90 1010.8
20260507051051 55 0 0.0 0.0 0.20 0.38 0.20 90 1010.8
20260507050549 55 0 0.0 0.0 0.20 0.38 0.20 90 1011.0
20260507050057 55 0 0.0 1.0 0.18 0.36 0.18 90 1011.3
20260507045553 55 0 0.0 4.0 0.18 0.36 0.18 89 1010.9
20260507045049 56 322 0.0 4.0 0.18 0.36 0.18 89 1011.0
20260507044601 56 336 1.0 4.0 0.17 0.35 0.17 88 1011.0
20260507044050 57 0 0.0 3.0 0.13 0.31 0.13 88 1011.1
20260507043549 57 0 0.0 2.0 0.07 0.25 0.07 87 1010.5
20260507043105 58 0 0.0 2.0 0.03 0.21 0.03 86 1010.4
20260507042549 58 0 0.0 2.0 0.01 0.19 0.01 86 1010.5
20260507042053 58 321 0.0 2.0 0.01 0.19 0.01 85 1010.3
20260507041555 58 0 0.0 1.0 0.00 0.18 0.00 85 1010.4
20260507041052 59 0 0.0 2.0 0.00 0.18 0.00 84 1010.5
20260507040550 59 0 0.0 2.0 0.00 0.18 0.00 84 1010.4
20260507040103 59 0 0.0 2.0 0.00 0.18 0.00 83 1010.3
20260507035549 59 324 0.0 2.0 0.00 0.18 0.18 83 1010.1
20260507035050 59 331 0.0 5.0 0.00 0.18 0.18 83 1010.1
20260507034559 60 337 0.0 5.0 0.00 0.18 0.18 82 1010.1
20260507034049 60 317 1.0 5.0 0.00 0.18 0.18 82 1009.9
20260507033552 60 0 0.0 2.0 0.00 0.18 0.18 82 1010.0
20260507033058 60 0 0.0 2.0 0.00 0.18 0.18 82 1010.2
20260507032550 61 0 0.0 3.0 0.00 0.18 0.18 82 1010.3
20260507032052 61 320 1.0 4.0 0.00 0.18 0.18 81 1010.2
20260507031557 61 0 1.0 4.0 0.00 0.18 0.18 82 1010.0
20260507031052 61 0 2.0 4.0 0.00 0.18 0.18 82 1009.9
20260507030550 61 324 1.0 4.0 0.00 0.18 0.18 83 1009.6
20260507030054 61 323 1.0 3.0 0.00 0.18 0.18 84 1009.4
20260507025552 62 0 0.0 3.0 0.00 0.18 0.18 85 1009.7
20260507025050 62 0 0.0 3.0 0.00 0.18 0.18 86 1009.7
20260507024558 62 0 1.0 3.0 0.00 0.18 0.18 85 1009.7
20260507024052 62 0 0.0 1.0 0.00 0.18 0.18 86 1009.8
20260507023549 62 0 0.0 1.0 0.00 0.18 0.18 86 1009.4
20260507023054 62 0 0.0 2.0 0.00 0.18 0.18 86 1009.4
20260507022550 63 0 0.0 2.0 0.00 0.18 0.18 86 1009.4
20260507022050 63 313 0.0 2.0 0.00 0.18 0.18 86 1009.5
20260507021558 63 0 0.0 3.0 0.00 0.18 0.18 86 1009.5
20260507021049 63 0 0.0 3.0 0.00 0.18 0.18 86 1009.7
20260507020554 63 319 0.0 2.0 0.00 0.18 0.18 87 1009.4
20260507020056 63 0 0.0 2.0 0.00 0.18 0.18 87 1009.2
20260507015549 63 0 0.0 1.0 0.00 0.18 0.18 87 1009.2
20260507015049 64 0 0.0 1.0 0.00 0.18 0.18 88 1009.4
20260507014556 64 0 0.0 1.0 0.00 0.18 0.18 88 1009.5
20260507014050 64 0 0.0 2.0 0.00 0.18 0.18 88 1009.6
20260507013553 64 0 0.0 2.0 0.00 0.18 0.18 88 1009.5
20260507013053 64 329 0.0 2.0 0.00 0.18 0.18 88 1009.6
20260507012553 65 0 0.0 2.0 0.00 0.18 0.18 88 1009.6
20260507012050 65 321 0.0 1.0 0.00 0.18 0.18 88 1009.5
20260507011553 65 0 0.0 3.0 0.00 0.18 0.18 87 1009.5
20260507011051 65 298 0.0 3.0 0.00 0.18 0.18 87 1009.6
20260507010550 65 0 0.0 2.0 0.00 0.18 0.18 86 1009.2
20260507010111 66 329 0.0 2.0 0.00 0.18 0.18 87 1009.2
20260507005550 66 0 0.0 0.0 0.00 0.18 0.18 87 1009.4
20260507005051 66 0 0.0 0.0 0.00 0.18 0.18 86 1009.3
20260507004550 66 0 0.0 0.0 0.00 0.18 0.18 86 1009.3
20260507004049 66 0 0.0 0.0 0.00 0.18 0.18 85 1009.0
20260507003552 66 0 0.0 0.0 0.00 0.18 0.18 85 1008.8
20260507003053 66 0 0.0 1.0 0.00 0.18 0.18 85 1008.6
20260507002549 66 333 0.0 1.0 0.00 0.18 0.18 85 1008.7
20260507002050 66 333 0.0 1.0 0.00 0.18 0.18 85 1008.6
20260507001559 67 0 0.0 1.0 0.00 0.18 0.18 84 1008.5
20260507001049 67 0 0.0 1.0 0.00 0.18 0.18 84 1008.5
20260507000552 67 0 0.0 1.0 0.00 0.18 0.18 84 1008.5
20260507000056 67 0 0.0 3.0 0.00 0.18 0.18 84 1008.5
20260506235550 67 0 0.0 3.0 0.00 0.18 0.18 84 1008.3
20260506235049 67 0 0.0 2.0 0.00 0.18 0.18 84 1008.2
20260506234555 67 0 0.0 2.0 0.00 0.18 0.18 83 1008.1
20260506234049 67 0 0.0 2.0 0.00 0.18 0.18 83 1008.2
20260506233550 67 0 0.0 2.0 0.00 0.18 0.18 83 1008.1
20260506233059 67 0 0.0 1.0 0.00 0.18 0.18 83 1008.1
20260506232550 67 335 0.0 1.0 0.00 0.18 0.18 83 1008.0
20260506232048 68 0 0.0 2.0 0.00 0.18 0.18 83 1007.9
20260506231557 68 0 0.0 2.0 0.00 0.18 0.18 83 1008.0
20260506231050 68 355 0.0 1.0 0.00 0.18 0.18 82 1008.0
20260506230549 68 0 0.0 0.0 0.00 0.18 0.18 82 1008.0
20260506230054 68 0 0.0 2.0 0.00 0.18 0.18 82 1008.0
20260506225550 68 0 0.0 2.0 0.00 0.18 0.18 82 1008.0
20260506225053 68 0 0.0 0.0 0.00 0.18 0.18 82 1008.0
20260506224556 68 0 0.0 0.0 0.00 0.18 0.18 82 1008.0
20260506224050 68 0 0.0 2.0 0.00 0.18 0.18 82 1008.0
20260506223549 68 0 0.0 2.0 0.00 0.18 0.18 82 1008.0
20260506223101 68 322 0.0 2.0 0.00 0.18 0.18 81 1008.0
20260506222550 68 0 0.0 5.0 0.00 0.18 0.18 81 1008.0
20260506222050 68 0 0.0 5.0 0.00 0.18 0.18 81 1008.0
20260506221600 68 9 0.0 5.0 0.00 0.18 0.18 81 1008.0
20260506221049 68 0 0.0 3.0 0.00 0.18 0.18 81 1008.0
20260506220549 68 330 0.0 2.0 0.00 0.18 0.18 81 1007.8
20260506220056 68 0 0.0 1.0 0.00 0.18 0.18 81 1007.9
20260506215551 68 0 0.0 2.0 0.00 0.18 0.18 81 1007.9
20260506215053 68 0 0.0 2.0 0.00 0.18 0.18 80 1008.0
20260506214601 69 0 0.0 2.0 0.00 0.18 0.18 80 1007.9
20260506214049 69 302 0.0 2.0 0.00 0.18 0.18 79 1007.9
20260506213549 69 0 0.0 5.0 0.00 0.18 0.18 79 1007.7
20260506213056 69 0 1.0 5.0 0.00 0.18 0.18 79 1007.6
20260506212550 69 0 0.0 3.0 0.00 0.18 0.18 78 1007.7
20260506212050 69 0 0.0 4.0 0.00 0.18 0.18 78 1007.6
20260506211555 70 120 0.0 4.0 0.00 0.18 0.18 78 1007.6
20260506211050 69 0 0.0 3.0 0.00 0.18 0.18 78 1007.6
20260506210551 69 189 0.0 5.0 0.00 0.18 0.18 79 1007.4
20260506210057 69 0 0.0 5.0 0.00 0.18 0.18 79 1007.5
20260506205549 69 0 1.0 4.0 0.00 0.18 0.18 78 1007.4
20260506205049 69 0 0.0 4.0 0.00 0.18 0.18 78 1007.4
20260506204551 69 77 0.0 4.0 0.00 0.18 0.18 78 1007.4
20260506204052 69 106 1.0 5.0 0.00 0.18 0.18 78 1007.5
20260506203550 70 152 0.0 5.0 0.00 0.18 0.18 78 1007.6
20260506203049 70 155 1.0 8.0 0.00 0.18 0.18 77 1007.6
20260506202550 70 332 1.0 8.0 0.00 0.18 0.18 76 1007.5
20260506202050 71 0 0.0 8.0 0.00 0.18 0.18 76 1007.5
20260506201552 71 96 2.0 8.0 0.00 0.18 0.18 75 1007.5
20260506201049 71 318 0.0 5.0 0.00 0.18 0.18 76 1007.4
20260506200549 71 233 2.0 4.0 0.00 0.18 0.18 77 1007.4
20260506200056 71 148 0.0 5.0 0.00 0.18 0.18 77 1007.4
20260506195553 71 269 1.0 7.0 0.00 0.18 0.18 77 1007.4
20260506195050 71 130 1.0 7.0 0.00 0.18 0.18 77 1007.5
20260506194557 71 177 2.0 6.0 0.00 0.18 0.18 77 1007.4
20260506194051 70 304 0.0 4.0 0.00 0.18 0.18 80 1007.6
20260506193549 69 30 1.0 6.0 0.00 0.18 0.18 79 1007.5
20260506193056 69 132 0.0 6.0 0.00 0.18 0.18 79 1007.5
20260506192549 69 294 1.0 7.0 0.00 0.18 0.18 80 1007.7
20260506192054 69 72 1.0 7.0 0.00 0.18 0.18 81 1007.6
20260506191558 68 194 2.0 7.0 0.00 0.18 0.18 81 1007.6
20260506191050 68 141 1.0 7.0 0.00 0.18 0.18 81 1007.7
20260506190550 67 0 1.0 7.0 0.00 0.18 0.18 82 1007.8
20260506190058 67 298 1.0 7.0 0.00 0.18 0.18 82 1007.9
20260506185550 67 0 1.0 6.0 0.00 0.18 0.18 83 1008.1
20260506185050 66 326 2.0 6.0 0.00 0.18 0.18 83 1008.1
20260506184550 66 0 1.0 6.0 0.00 0.18 0.18 83 1008.1
20260506184050 66 293 1.0 11.0 0.00 0.18 0.18 83 1008.1
20260506183550 66 303 1.0 11.0 0.00 0.18 0.18 84 1008.0
20260506183100 66 179 0.0 8.0 0.00 0.18 0.18 84 1008.2
20260506182549 66 119 1.0 8.0 0.00 0.18 0.18 84 1008.3
20260506182049 65 193 3.0 8.0 0.00 0.18 0.18 84 1008.2
20260506181553 65 284 1.0 5.0 0.00 0.18 0.18 85 1008.1
20260506181050 65 0 1.0 5.0 0.00 0.18 0.18 85 1008.2
20260506180550 65 328 0.0 5.0 0.00 0.18 0.18 86 1008.3
20260506180058 64 143 1.0 7.0 0.00 0.18 0.18 86 1008.5
20260506175551 64 287 1.0 7.0 0.00 0.18 0.18 86 1008.5
20260506175050 64 183 2.0 8.0 0.00 0.18 0.18 87 1008.5
20260506174558 64 307 0.0 8.0 0.00 0.18 0.18 88 1008.5
20260506174050 63 186 2.0 8.0 0.00 0.18 0.18 88 1008.3
20260506173550 63 296 2.0 6.0 0.00 0.18 0.18 88 1008.5
20260506173126 63 302 1.0 6.0 0.00 0.18 0.18 89 1008.6
20260506172550 63 316 1.0 6.0 0.00 0.18 0.18 89 1008.5
20260506172050 63 0 1.0 8.0 0.00 0.18 0.18 89 1008.5
20260506171556 62 331 1.0 11.0 0.00 0.18 0.18 89 1008.5
20260506171050 62 282 2.0 11.0 0.00 0.18 0.18 89 1008.5
20260506170553 62 305 4.0 11.0 0.00 0.18 0.18 89 1008.6
20260506170053 62 167 1.0 8.0 0.00 0.18 0.18 90 1008.5
20260506165549 62 134 3.0 8.0 0.00 0.18 0.18 90 1008.6
20260506165050 62 143 2.0 9.0 0.00 0.18 0.18 90 1008.7
20260506164551 62 129 1.0 9.0 0.00 0.18 0.18 90 1008.8
20260506164049 61 129 2.0 9.0 0.00 0.18 0.18 90 1008.8
20260506163550 61 309 4.0 7.0 0.00 0.18 0.18 90 1008.7
20260506163102 61 163 1.0 11.0 0.00 0.18 0.18 91 1008.6
20260506162550 61 158 2.0 11.0 0.00 0.18 0.18 91 1008.6
20260506162050 61 0 2.0 11.0 0.00 0.18 0.18 91 1008.8
20260506161605 61 0 4.0 8.0 0.01 0.18 0.18 91 1009.1
20260506161052 61 141 3.0 10.0 0.01 0.18 0.18 91 1008.9
20260506160550 61 96 3.0 10.0 0.01 0.18 0.18 91 1008.9
20260506160054 61 174 4.0 10.0 0.02 0.18 0.18 91 1009.0
20260506155550 61 211 3.0 8.0 0.02 0.18 0.18 91 1008.9
20260506155050 61 270 1.0 8.0 0.02 0.18 0.18 91 1009.0
20260506154601 61 285 2.0 6.0 0.03 0.18 0.18 91 1009.0
20260506154050 61 0 2.0 7.0 0.04 0.18 0.18 92 1008.9
20260506153551 60 326 2.0 7.0 0.04 0.18 0.18 91 1008.9
20260506153055 60 160 2.0 9.0 0.05 0.18 0.18 91 1009.2
20260506152550 60 305 2.0 11.0 0.05 0.18 0.18 91 1009.3
20260506152052 60 184 4.0 12.0 0.06 0.18 0.18 91 1009.4
20260506151553 60 165 4.0 12.0 0.05 0.17 0.17 91 1009.4
20260506151050 60 298 2.0 8.0 0.06 0.17 0.17 91 1009.7
20260506150550 60 312 2.0 8.0 0.07 0.17 0.17 91 1009.8
20260506145550 60 138 3.0 8.0 0.07 0.16 0.16 91 1009.7
20260506145054 61 108 2.0 10.0 0.07 0.16 0.16 91 1009.6
20260506144609 61 0 1.0 10.0 0.07 0.15 0.15 91 1009.6
20260506144050 61 0 1.0 7.0 0.07 0.14 0.14 91 1009.8
20260506143550 61 8 2.0 7.0 0.07 0.14 0.14 91 1009.7
20260506143055 61 341 1.0 6.0 0.07 0.13 0.13 91 1009.5
20260506142552 61 109 2.0 7.0 0.09 0.13 0.13 91 1009.4
20260506142050 61 283 1.0 7.0 0.09 0.12 0.12 90 1009.3
20260506141555 61 16 1.0 8.0 0.10 0.12 0.12 91 1009.5
20260506141053 61 0 1.0 8.0 0.09 0.11 0.11 90 1009.6
20260506140551 61 35 1.0 6.0 0.08 0.10 0.10 90 1009.4
20260506140110 61 132 0.0 5.0 0.09 0.10 0.10 90 1009.7
20260506135551 61 331 0.0 4.0 0.08 0.09 0.09 90 1009.7
20260506135051 61 170 1.0 5.0 0.08 0.08 0.08 89 1010.0
20260506134554 61 147 1.0 5.0 0.08 0.08 0.08 89 1010.1
20260506134050 61 132 0.0 6.0 0.07 0.07 0.07 88 1010.1
20260506133550 61 147 2.0 6.0 0.07 0.07 0.07 88 1009.9
20260506133119 62 274 0.0 4.0 0.06 0.06 0.06 88 1009.9
20260506132554 62 286 1.0 4.0 0.04 0.04 0.04 87 1009.9
20260506132050 62 0 1.0 5.0 0.03 0.03 0.03 86 1009.8
20260506131551 62 0 1.0 5.0 0.02 0.02 0.02 85 1009.9
20260506131053 62 0 1.0 7.0 0.02 0.02 0.02 85 1009.8
20260506130550 63 119 1.0 7.0 0.02 0.02 0.02 84 1009.7
20260506130134 63 88 1.0 5.0 0.01 0.01 0.01 83 1009.5
20260506125549 63 7 1.0 5.0 0.01 0.01 0.01 83 1009.3
20260506125049 63 64 1.0 5.0 0.00 0.00 0.00 82 1009.6
20260506124553 63 316 0.0 6.0 0.00 0.00 0.00 82 1009.5
20260506124049 63 10 2.0 6.0 0.00 0.00 0.00 81 1009.6
20260506123552 63 279 1.0 5.0 0.00 0.00 0.00 81 1009.6
20260506123053 63 176 0.0 5.0 0.00 0.00 0.00 82 1009.7
20260506122551 63 0 0.0 5.0 0.00 0.00 0.00 81 1009.9
20260506122050 63 313 1.0 9.0 0.00 0.00 0.00 80 1010.0
20260506121556 64 154 0.0 9.0 0.00 0.00 0.00 80 1010.1
20260506121051 64 134 2.0 9.0 0.00 0.00 0.00 78 1010.0
20260506120551 65 165 1.0 6.0 0.00 0.00 0.00 77 1010.1
20260506120100 65 200 1.0 6.0 0.00 0.00 0.00 76 1010.0
20260506115550 65 189 1.0 5.0 0.00 0.00 0.00 76 1010.0
20260506115050 65 293 2.0 5.0 0.00 0.00 0.00 75 1009.9
20260506114601 65 187 2.0 13.0 0.00 0.00 0.00 75 1009.9
20260506114050 65 165 2.0 13.0 0.00 0.00 0.00 75 1009.7
20260506113549 65 120 3.0 13.0 0.00 0.00 0.00 75 1009.5
20260506113054 65 167 2.0 8.0 0.00 0.00 0.00 75 1009.5
20260506112551 65 254 2.0 8.0 0.00 0.00 0.00 75 1009.5
20260506112052 65 322 2.0 9.0 0.00 0.00 0.00 75 1009.5
20260506111557 65 114 1.0 9.0 0.00 0.00 0.00 75 1009.4
20260506111051 65 31 2.0 9.0 0.00 0.00 0.00 75 1009.2
20260506110551 65 78 2.0 8.0 0.00 0.00 0.00 75 1009.4
20260506110055 65 163 2.0 10.0 0.00 0.00 0.00 75 1009.3
20260506105550 65 0 4.0 10.0 0.00 0.00 0.00 75 1009.2
20260506105049 65 0 1.0 9.0 0.00 0.00 0.00 75 1009.2
20260506104600 65 161 3.0 9.0 0.00 0.00 0.00 75 1009.3
20260506104049 65 279 1.0 7.0 0.00 0.00 0.00 75 1009.1
20260506103550 65 121 1.0 6.0 0.00 0.00 0.00 75 1009.1
20260506103054 65 329 1.0 8.0 0.00 0.00 0.00 75 1009.0
20260506102551 65 307 2.0 8.0 0.00 0.00 0.00 75 1009.0
20260506102052 65 63 2.0 9.0 0.00 0.00 0.00 75 1009.0
20260506101552 65 141 1.0 10.0 0.00 0.00 0.00 75 1009.0
20260506101049 65 182 1.0 10.0 0.00 0.00 0.00 75 1009.0
20260506100549 65 160 2.0 9.0 0.00 0.00 0.00 75 1009.0
20260506100105 65 232 1.0 12.0 0.00 0.00 0.00 75 1009.0
20260506095551 65 233 1.0 12.0 0.00 0.00 0.00 74 1009.0
20260506095050 65 211 2.0 8.0 0.00 0.00 0.00 74 1009.0
20260506094603 65 314 3.0 10.0 0.00 0.00 0.00 74 1009.1
20260506094050 65 165 2.0 10.0 0.00 0.00 0.00 74 1009.1
20260506093550 65 303 2.0 7.0 0.00 0.00 0.00 74 1009.0
20260506093053 65 288 2.0 7.0 0.00 0.00 0.00 73 1009.0
20260506092551 65 194 2.0 7.0 0.00 0.00 0.00 73 1009.0
20260506092050 66 98 2.0 7.0 0.00 0.00 0.00 73 1009.1
20260506091552 66 281 1.0 7.0 0.00 0.00 0.00 72 1009.0
20260506091049 66 99 0.0 9.0 0.00 0.00 0.00 72 1009.0
20260506090549 66 204 3.0 12.0 0.00 0.00 0.00 71 1009.1
20260506090053 66 108 3.0 12.0 0.00 0.00 0.00 71 1009.0